Weather History for KAST - March, 2012

Change the Weather History Date:

Thursday, March 15, 2012

  Actual Average Record
Temperature  
Mean Temperature 48 °F 46 °F  
Max Temperature 52 °F 54 °F 74 °F (1947)
Min Temperature 44 °F 39 °F 28 °F (1955)
Degree Days  
Heating Degree Days 17 19  
Month to date heating degree days 328 290  
Since 1 July heating degree days 3806 3632  
Cooling Degree Days 0 0  
Month to date cooling degree days 0 0  
Year to date cooling degree days 0 0  
Moisture  
Dew Point 46 °F    
Average Humidity 85    
Maximum Humidity 93    
Minimum Humidity 77    
Precipitation  
Precipitation 0.87 in 0.25 in 3.01 in (1908)
Month to date precipitation 6.93 3.74  
Year to date precipitation 24.53 21.13  
Snow  
Snow 0.00 in - - ()
Month to date snowfall 0.0  
Snow Depth 0.00 in    
Sea Level Pressure  
Sea Level Pressure 29.61 in    
Wind  
Wind Speed 19 mph (SSW)    
Max Wind Speed 38 mph    
Max Gust Speed 60 mph    
Visibility 7 miles    
Events Rain    
T = Trace of Precipitation, MM = Missing Value Source: NWS Daily Summary

Daily Weather History Graph

Daily Weather History Graph

Search for Another Location

Airport or City:

Trip Planner

Search our weather history database for the weather conditions in past years. The results will help you decide how hot, cold, wet, or windy it might be!

Date:

Astronomy

Mar. 15, 2012 Rise Set
Actual Time 7:27 AM PDT 7:22 PM PDT
Civil Twilight 6:57 AM PDT 7:52 PM PDT
Nautical Twilight 6:22 AM PDT 8:27 PM PDT
Astronomical Twilight 5:46 AM PDT 9:02 PM PDT
Moon 3:19 AM PDT (3/15) 12:26 PM PDT (3/15)
Length of Visible Light 12h 54m
Length of Day
11h 55m
Last Quarter, 42% of the Moon is Illuminated
Mar 15
Last Quarter
Mar 22
New
Mar 30
First Quarter
Apr 6
Full
Apr 13
Last Quarter

Hourly Weather History & Observations

Time (PDT) Temp. Windchill Dew Point Humidity Pressure Visibility Wind Dir Wind Speed Gust Speed Precip Events Conditions
12:55 AM 50.0 °F - 48.0 °F 93% 29.62 in 10.0 mi South 21.9 mph 36.8 mph 0.07 in Rain Light Rain
1:55 AM 50.0 °F - 48.0 °F 93% 29.58 in 5.0 mi South 25.3 mph 43.7 mph 0.03 in Rain Light Rain
2:16 AM 51.8 °F - 48.2 °F 88% 29.57 in 10.0 mi South 21.9 mph 36.8 mph 0.02 in Rain Light Rain
2:55 AM 51.1 °F - 48.9 °F 92% 29.57 in 10.0 mi South 25.3 mph 49.5 mph 0.02 in Rain Light Rain
3:55 AM 51.1 °F - 48.9 °F 92% 29.54 in 5.0 mi South 32.2 mph 50.6 mph 0.08 in Rain Rain
4:55 AM 51.1 °F - 48.9 °F 92% 29.52 in 5.0 mi South 28.8 mph 41.4 mph 0.08 in Rain Rain
5:46 AM 51.8 °F - 48.2 °F 88% 29.49 in 4.0 mi South 26.5 mph 49.5 mph 0.10 in Rain Heavy Rain
5:55 AM 51.1 °F - 48.9 °F 92% 29.50 in 3.0 mi South 26.5 mph 40.3 mph 0.16 in Rain Heavy Rain
6:09 AM 51.8 °F - 48.2 °F 88% 29.50 in 7.0 mi South 28.8 mph 41.4 mph 0.01 in Rain Light Rain
6:55 AM 51.1 °F - 48.9 °F 92% 29.48 in 3.0 mi South 25.3 mph 54.1 mph 0.06 in Rain Rain
7:21 AM 51.8 °F - 48.2 °F 88% 29.49 in 2.5 mi South 24.2 mph 43.7 mph 0.04 in Rain Light Rain
7:29 AM 51.8 °F - 48.2 °F 88% 29.49 in 3.0 mi SSW 29.9 mph 43.7 mph 0.06 in Rain Light Rain
7:55 AM 51.1 °F - 48.9 °F 92% 29.50 in 4.0 mi South 31.1 mph 59.8 mph 0.08 in Rain Light Rain
8:18 AM 51.8 °F - 50.0 °F 94% 29.51 in 2.5 mi SSW 28.8 mph 44.9 mph 0.02 in Rain Light Rain
8:27 AM 51.8 °F - 48.2 °F 88% 29.52 in 5.0 mi SSW 29.9 mph 49.5 mph 0.02 in Rain Light Rain
8:39 AM 51.8 °F - 48.2 °F 88% 29.53 in 9.0 mi SSW 27.6 mph 43.7 mph 0.02 in Rain Light Rain
9:55 AM 50.0 °F - 48.0 °F 93% 29.56 in 10.0 mi SSW 19.6 mph 33.4 mph 0.00 in   Overcast
10:19 AM 51.8 °F - 48.2 °F 88% 29.57 in 10.0 mi SSW 20.7 mph 32.2 mph 0.00 in Rain Light Rain
10:27 AM 51.8 °F - 48.2 °F 88% 29.57 in 7.0 mi South 23.0 mph 35.7 mph 0.00 in Rain Light Rain
10:55 AM 51.1 °F - 46.9 °F 86% 29.58 in 10.0 mi SSW 20.7 mph 40.3 mph 0.00 in   Overcast
11:32 AM 50.0 °F - 46.4 °F 87% 29.60 in 10.0 mi SSW 23.0 mph 35.7 mph 0.00 in Rain Light Rain
11:55 AM 51.1 °F - 46.0 °F 83% 29.62 in 10.0 mi SSW 23.0 mph 39.1 mph 0.00 in   Overcast
12:25 PM 51.8 °F - 44.6 °F 76% 29.63 in 9.0 mi SSW 23.0 mph 38.0 mph N/A   Overcast
12:55 PM 51.1 °F - 46.0 °F 83% 29.64 in 9.0 mi SSW 18.4 mph 34.5 mph N/A   Overcast
1:26 PM 51.8 °F - 46.4 °F 82% 29.65 in 9.0 mi SSW 23.0 mph 34.5 mph N/A   Overcast
1:55 PM 51.1 °F - 45.0 °F 80% 29.65 in 8.0 mi SSW 18.4 mph 32.2 mph N/A   Overcast
2:31 PM 48.2 °F - 46.4 °F 93% 29.67 in 3.0 mi SSW 19.6 mph 39.1 mph 0.01 in Rain Light Rain
2:38 PM 48.2 °F - 46.4 °F 93% 29.67 in 2.5 mi SW 19.6 mph 28.8 mph 0.02 in Rain Light Rain
2:45 PM 48.2 °F - 44.6 °F 87% 29.67 in 5.0 mi SW 13.8 mph 28.8 mph 0.02 in Rain Light Rain
2:55 PM 48.9 °F - 45.0 °F 86% 29.68 in 8.0 mi SW 11.5 mph 19.6 mph 0.02 in   Overcast
3:15 PM 48.2 °F - 46.4 °F 93% 29.68 in 7.0 mi SSW 12.7 mph 20.7 mph N/A   Overcast
3:55 PM 48.9 °F - 45.0 °F 86% 29.68 in 7.0 mi SW 11.5 mph 19.6 mph N/A   Overcast
4:53 PM 50.0 °F - 46.4 °F 87% 29.68 in 8.0 mi SSW 11.5 mph 21.9 mph N/A   Overcast
4:55 PM 50.0 °F - 46.0 °F 86% 29.68 in 8.0 mi SW 13.8 mph 20.7 mph N/A   Overcast
5:25 PM 48.2 °F - 44.6 °F 87% 29.68 in 9.0 mi SSW 12.7 mph 23.0 mph N/A   Mostly Cloudy
5:55 PM 48.9 °F - 44.1 °F 83% 29.68 in 8.0 mi SSW 15.0 mph 20.7 mph N/A   Overcast
6:55 PM 48.0 °F - 45.0 °F 89% 29.66 in 8.0 mi SSW 15.0 mph 25.3 mph 0.00 in   Overcast
7:55 PM 46.9 °F - 43.0 °F 86% 29.66 in 10.0 mi SSW 11.5 mph - N/A   Mostly Cloudy
8:47 PM 46.4 °F 40.4 °F 44.6 °F 93% 29.65 in 2.5 mi WSW 13.8 mph 20.7 mph 0.02 in Rain Rain
8:51 PM 44.6 °F 38.1 °F 42.8 °F 93% 29.65 in 1.8 mi SW 13.8 mph 21.9 mph 0.09 in Rain Heavy Rain
8:55 PM 44.1 °F 37.7 °F 41.0 °F 89% 29.65 in 2.0 mi SW 12.7 mph 21.9 mph 0.14 in Rain Heavy Rain
9:03 PM 44.6 °F 40.2 °F 41.0 °F 87% 29.66 in 4.0 mi SSW 8.1 mph - 0.02 in Rain Rain
9:22 PM 44.6 °F 39.2 °F 42.8 °F 93% 29.66 in 6.0 mi SSW 10.4 mph - 0.05 in Rain Rain
9:55 PM 44.1 °F 40.1 °F 42.1 °F 93% 29.66 in 10.0 mi Variable 6.9 mph - 0.07 in   Overcast
10:05 PM 44.6 °F 41.4 °F 42.8 °F 93% 29.66 in 10.0 mi South 5.8 mph - N/A   Overcast
10:55 PM 45.0 °F 40.1 °F 42.1 °F 90% 29.66 in 10.0 mi SSW 9.2 mph 19.6 mph N/A   Mostly Cloudy
11:03 PM 46.4 °F 40.7 °F 42.8 °F 87% 29.66 in 10.0 mi South 12.7 mph 19.6 mph N/A   Mostly Cloudy
11:14 PM 46.4 °F 40.4 °F 42.8 °F 87% 29.66 in 10.0 mi SSW 13.8 mph 19.6 mph N/A   Mostly Cloudy
11:22 PM 46.4 °F 40.4 °F 42.8 °F 87% 29.65 in 10.0 mi SSW 13.8 mph 19.6 mph N/A   Mostly Cloudy
11:50 PM 46.4 °F 41.5 °F 42.8 °F 87% 29.65 in 10.0 mi SSW 10.4 mph 21.9 mph N/A   Mostly Cloudy
11:55 PM 46.0 °F 39.9 °F 42.1 °F 86% 29.65 in 10.0 mi SSW 13.8 mph 21.9 mph N/A   Mostly Cloudy